Location: Hemaruka
(51.7801°N, 111.0917°W)
Time: 10:04:46
(UTC+00:00)

NOAA 15 - Pass Details

Date: 11 December 2023
Orbit: 797 x 810 km, 98.6° (Epoch: 02 March)

Event Time Altitude Azimuth Distance (km) Brightness Sun altitude
Rises 13:54:08 0° 26° (NNE) 3,321 7.9 -12.5°
Reaches altitude 10° 13:57:16 10° 45° (NE) 2,383 7.4 -12.1°
Maximum altitude 14:00:48 18° 88° (E) 1,877 7.5 -11.5°
Drops below altitude 10° 14:04:18 10° 130° (SE) 2,368 8.4 -11.0°
Sets 14:07:23 0° 150° (SSE) 3,291 8.8 -10.6°
